Wetbulb
58.57 58.86 59.00 59.53 59.43 59.30 59.16 59.72 60.39 61.65 62.41 62.89 62.78 62.29 62.47 62.69 63.87 65.35 66.35 66.85 69.18 69.85 71.13 72.01 72.26 71.50 70.80 70.54 69.61 69.54 69.71 68.52 68.51 69.78 70.36 70.17 70.28 70.07 69.38 68.89 68.26 67.21 66.64
59.05 58.95 59.17 59.55 59.19 59.22 59.46 59.13 59.89 60.97 61.53 61.79 61.73 61.89 61.96 62.37 63.52 64.71 66.20 65.70 68.81 69.57 70.62 71.17 71.24 71.56 70.97 70.27 69.84 69.15 69.15 68.41 68.50 69.06 69.43 69.80 69.33 68.61 67.86 67.38 66.56 65.99 65.33
59.65 59.61 59.15 59.18 58.99 59.31 59.50 59.06 59.71 60.63 60.39 60.73 61.18 61.29 61.67 62.08 63.16 64.18 65.52 66.26 67.81 69.27 69.94 71.09 71.11 71.25 70.74 69.94 69.70 69.21 68.55 67.65 68.22 68.61 68.61 68.74 68.21 67.65 66.64 66.16 65.89 65.43 65.12
60.64 59.39 58.95 58.73 59.10 59.15 59.02 58.87 58.85 59.25 59.46 59.94 60.34 60.57 61.40 61.94 63.01 63.87 65.28 66.38 67.56 68.84 69.77 70.09 70.98 70.55 70.23 70.31 70.09 69.29 68.23 68.45 67.87 68.11 68.29 68.11 67.54 67.21 66.82 66.01 65.53 65.09 64.61
61.75 59.81 58.85 58.92 59.16 59.07 58.77 58.43 57.80 58.78 58.59 59.05 60.11 60.53 60.77 61.65 63.06 64.58 64.97 65.50 67.09 68.08 69.18 69.71 69.52 69.74 69.81 69.76 69.69 69.06 68.44 67.70 67.27 67.82 68.19 67.65 66.93 66.93 66.73 65.33 64.97 64.37 63.84
61.74 59.55 59.05 59.22 59.41 58.75 58.05 57.79 57.92 58.86 59.51 60.04 60.91 59.60 60.39 61.56 62.58 63.91 63.74 64.65 66.73 67.16 67.50 67.79 69.04 68.51 69.57 69.51 69.11 69.05 69.42 67.89 67.65 67.58 67.61 67.27 67.10 66.28 65.38 65.09 64.46 63.95 63.32
61.36 59.54 58.85 59.35 59.31 58.57 57.87 57.86 58.08 58.80 59.27 59.85 57.89 58.55 59.36 60.28 60.99 63.27 65.40 64.66 65.03 65.75 66.57 67.45 67.99 68.50 68.08 68.84 68.36 68.17 68.13 68.25 67.91 67.35 67.23 66.83 66.76 65.56 65.21 64.60 64.14 63.55 62.96
61.13 59.56 58.46 59.35 59.25 57.67 57.37 57.61 58.22 57.79 58.79 59.35 57.28 57.00 55.85 58.38 61.22 62.55 64.24 64.72 64.32 65.94 65.76 66.87 66.89 67.29 67.27 66.60 66.35 67.34 67.57 68.34 68.06 67.44 67.10 66.69 66.51 65.24 64.92 64.32 63.84 63.34 62.74
61.58 61.53 60.36 59.51 58.77 57.87 57.09 57.49 58.04 58.83 57.85 59.08 59.02 57.78 54.58 53.71 58.67 62.13 62.81 63.95 63.78 64.01 64.28 65.71 66.09 66.40 66.51 65.05 66.29 67.11 68.01 67.40 67.25 67.19 66.47 66.02 65.86 65.48 64.75 64.22 63.62 63.26 62.79
61.62 61.33 60.45 59.91 58.55 57.91 57.31 57.77 58.46 59.11 59.51 57.51 59.34 60.33 59.31 59.98 56.12 56.26 61.88 62.22 63.97 63.08 63.39 64.53 65.05 65.57 64.97 64.71 66.53 66.91 65.89 66.29 66.26 65.42 64.94 66.26 65.92 65.52 64.75 64.08 63.55 63.08 62.36
61.06 61.10 60.12 59.22 58.33 58.01 57.92 58.40 58.38 58.92 59.36 59.01 59.21 59.41 59.72 60.07 60.13 58.08 56.80 59.00 61.51 62.58 63.10 63.40 63.62 64.66 63.87 64.61 65.16 64.81 65.00 64.79 64.50 65.11 65.49 66.12 65.74 65.19 64.57 64.08 63.30 62.78 62.41
60.01 60.68 59.75 58.85 58.76 58.38 58.08 58.98 59.19 58.95 59.14 59.76 60.32 58.85 59.83 59.78 58.57 58.92 57.63 58.25 58.23 60.27 62.31 63.04 63.06 63.69 63.64 64.81 64.70 64.84 64.08 63.39 62.94 63.35 64.29 65.33 65.48 65.24 64.21 63.48 63.27 62.89 62.61
58.83 59.31 58.93 58.90 58.74 58.76 58.67 59.10 58.74 58.92 59.70 59.86 59.80 59.29 59.25 59.97 59.65 60.66 59.42 58.33 57.83 59.20 60.45 62.20 62.92 63.26 64.19 63.42 63.93 64.97 64.30 62.49 61.24 60.98 61.63 62.75 63.74 64.14 64.06 63.92 63.33 63.06 62.00
58.79 59.33 59.73 59.40 59.52 59.52 59.25 58.88 58.84 59.10 59.96 59.96 59.96 59.93 59.90 60.95 61.84 61.42 59.27 57.72 55.90 57.57 59.18 60.04 62.58 62.81 63.48 63.73 64.09 64.12 63.06 61.05 59.85 59.24 59.45 60.36 61.37 62.18 62.62 62.73 62.76 62.46 62.57
60.29 59.67 59.92 60.00 59.99 59.68 58.96 58.69 58.49 58.94 59.46 59.44 59.67 60.32 60.16 60.62 61.80 61.16 61.05 59.13 56.95 55.46 56.28 59.40 60.09 62.57 63.60 63.75 63.99 63.27 62.52 60.53 60.28 58.74 58.11 58.65 59.21 59.94 60.30 60.27 60.37 60.23 60.38
60.02 59.98 59.45 59.99 60.09 59.41 59.07 59.36 59.87 59.80 60.17 59.66 59.60 60.22 60.56 60.34 60.84 61.06 60.55 60.43 60.20 58.41 56.26 59.92 60.64 61.80 62.89 63.49 63.47 62.14 61.55 60.94 59.27 58.57 58.73 57.59 57.42 57.83 58.17 58.10 58.16 58.57 59.02
60.02 59.76 59.45 59.86 59.64 59.39 60.45 60.46 60.80 60.88 60.42 59.96 59.91 59.87 60.00 60.69 60.48 60.86 61.86 61.99 60.57 60.27 57.85 60.09 61.42 62.16 61.96 61.78 61.87 61.50 61.53 60.75 59.97 58.52 58.23 57.07 55.94 56.00 56.21 56.25 56.33 56.81 57.35
60.54 60.22 59.98 59.82 59.41 59.10 60.43 59.82 59.55 59.47 59.58 59.20 60.05 60.38 60.03 60.48 60.25 61.25 61.28 61.52 60.71 61.60 60.13 58.25 60.44 60.66 60.93 61.40 60.74 60.60 61.06 61.48 60.77 58.84 57.06 56.30 55.59 55.19 55.01 54.60 54.06 53.85 53.06
60.33 60.57 60.48 60.11 59.36 59.50 59.95 59.98 59.72 59.66 59.98 60.36 60.33 60.63 60.47 60.91 60.43 61.07 60.92 60.74 61.18 61.02 60.65 59.95 58.88 61.10 60.94 60.82 59.28 59.20 59.36 59.22 59.53 59.37 56.20 55.81 55.03 54.62 54.10 53.32 52.70 52.14 50.96
60.08 60.18 60.56 60.31 59.35 59.68 59.66 59.93 60.22 59.86 60.01 60.22 60.87 60.97 60.94 60.57 59.96 60.46 60.68 60.64 60.77 60.32 60.45 59.59 58.75 58.69 58.69 59.04 58.99 56.68 55.75 58.13 58.33 57.27 56.27 54.89 53.88 54.01 53.21 52.83 53.36 53.35 50.76
60.98 60.84 60.91 61.17 60.46 59.61 60.07 59.11 59.23 59.49 59.40 59.67 60.48 60.93 61.47 60.51 58.45 59.37 60.61 60.38 60.33 59.48 59.27 58.61 56.97 56.89 55.38 57.63 58.88 57.95 56.94 56.32 56.74 57.08 56.92 55.41 55.89 55.17 53.73 52.51 52.34 50.47 48.44
61.40 61.54 61.34 61.24 60.84 60.37 50.02 52.66 57.72 59.50 59.40 59.71 59.50 59.50 58.95 57.35 55.64 53.80 54.31 54.53 57.59 58.37 57.37 56.93 55.28 56.26 55.59 57.22 56.02 57.31 55.22 54.50 53.74 56.35 57.34 53.33 54.10 51.61 51.50 50.85 48.32 47.19 46.47
58.97 60.17 60.32 60.71 59.62 57.41 47.84 48.93 52.92 59.78 59.64 59.55 59.64 60.00 60.11 58.53 58.61 58.43 52.86 52.84 53.53 53.44 55.60 58.24 57.69 57.67 55.64 56.02 56.21 54.09 54.29 54.75 55.64 55.18 57.91 51.36 52.32 49.84 50.14 48.11 46.64 45.89 44.83
56.82 58.22 58.89 59.29 59.04 54.95 46.57 47.66 51.65 60.52 60.41 60.25 60.52 60.25 59.77 59.31 58.31 58.78 58.52 56.85 56.41 56.76 58.03 58.46 60.27 58.33 59.11 56.59 57.29 56.60 56.19 55.11 52.92 51.66 56.33 51.71 50.00 48.88 49.81 48.12 45.39 44.95 43.54
55.65 56.12 57.66 58.65 58.43 53.99 46.39 47.84 56.14 60.09 59.59 59.38 60.21 60.26 60.27 58.92 48.37 49.78 57.00 55.97 54.89 53.25 47.13 45.72 47.01 47.14 46.15 47.64 53.04 57.23 55.83 55.66 52.13 51.11 50.93 50.81 48.97 49.39 49.28 47.50 46.85 44.32 43.27
55.25 56.15 56.56 57.88 53.75 56.20 44.94 46.75 56.04 60.00 58.95 59.28 59.51 57.93 52.32 56.82 44.76 47.42 56.14 55.81 55.56 53.58 51.50 50.97 51.69 49.11 49.74 48.35 48.59 58.02 56.69 54.04 48.91 49.57 51.32 50.31 49.33 49.85 47.75 48.58 46.10 45.15 45.68
MSLP
1011.61 1011.66 1011.74 1011.70 1011.73 1011.86 1011.95 1011.87 1011.85 1011.94 1012.00 1012.07 1012.28 1012.53 1012.75 1012.94 1013.13 1013.33 1013.32 1013.43 1013.32 1013.07 1013.13 1013.31 1013.64 1014.57 1015.34 1015.89 1016.52 1017.23 1017.81 1018.26 1018.90 1019.04 1019.36 1019.77 1020.10 1020.65 1020.97 1021.16 1021.76 1022.30 1022.57
1011.08 1011.22 1011.25 1011.26 1011.41 1011.51 1011.53 1011.63 1011.79 1011.76 1011.86 1012.10 1012.28 1012.50 1012.73 1012.94 1012.96 1013.01 1013.12 1013.33 1013.17 1012.92 1013.00 1013.23 1013.73 1014.30 1014.92 1015.57 1016.42 1016.91 1017.63 1018.20 1018.95 1019.15 1019.36 1019.81 1020.34 1020.89 1021.25 1021.61 1022.26 1022.62 1022.83
1010.54 1010.70 1010.82 1010.91 1010.98 1011.13 1011.31 1011.52 1011.59 1011.66 1011.87 1012.10 1012.32 1012.51 1012.59 1012.71 1012.73 1012.79 1012.90 1013.04 1013.00 1012.70 1012.78 1013.13 1013.60 1014.01 1014.68 1015.62 1016.03 1017.12 1017.60 1018.45 1019.10 1019.23 1019.40 1020.20 1020.70 1020.97 1021.49 1022.09 1022.43 1022.96 1023.15
1010.01 1010.25 1010.40 1010.50 1010.54 1010.82 1011.09 1011.29 1011.39 1011.67 1011.88 1012.11 1012.23 1012.35 1012.50 1012.57 1012.54 1012.51 1012.64 1012.76 1012.86 1012.75 1012.68 1012.83 1013.38 1014.14 1014.78 1015.24 1016.19 1017.31 1017.74 1018.54 1019.22 1019.43 1019.78 1020.46 1020.77 1021.19 1021.78 1022.29 1022.98 1023.31 1023.41
1009.54 1009.84 1009.94 1010.05 1010.20 1010.63 1010.93 1011.12 1011.45 1011.63 1011.86 1012.09 1012.22 1012.35 1012.43 1012.46 1012.41 1012.45 1012.66 1012.65 1012.66 1012.61 1012.72 1012.72 1013.45 1014.15 1014.91 1015.67 1016.31 1017.14 1018.01 1018.52 1019.41 1019.60 1020.06 1020.60 1021.12 1021.44 1021.86 1022.69 1023.28 1023.54 1023.73
1009.22 1009.50 1009.65 1009.79 1009.96 1010.37 1010.74 1011.13 1011.34 1011.56 1011.62 1011.84 1012.13 1012.40 1012.47 1012.45 1012.54 1012.67 1012.73 1012.61 1012.56 1012.60 1012.83 1013.01 1013.57 1014.24 1014.68 1015.44 1016.50 1017.07 1017.84 1018.64 1019.53 1019.80 1020.34 1020.75 1021.23 1021.64 1022.45 1022.92 1023.36 1023.57 1024.17
1008.91 1009.15 1009.39 1009.65 1009.90 1010.17 1010.50 1010.93 1011.22 1011.46 1011.66 1011.92 1012.21 1012.57 1012.57 1012.60 1012.73 1012.86 1012.82 1012.89 1012.92 1012.77 1013.03 1013.53 1013.91 1014.45 1015.10 1015.70 1016.56 1017.34 1017.90 1018.69 1019.49 1019.96 1020.62 1020.88 1021.47 1022.22 1022.42 1023.01 1023.26 1023.85 1024.34
1008.50 1008.76 1009.06 1009.39 1009.71 1010.12 1010.48 1010.74 1010.83 1011.26 1011.48 1011.78 1012.00 1012.30 1012.71 1012.96 1012.95 1013.01 1012.94 1013.11 1013.24 1013.14 1013.40 1013.67 1014.22 1014.73 1015.35 1016.08 1016.94 1017.48 1018.16 1018.89 1019.50 1020.39 1020.62 1021.22 1021.88 1022.23 1022.98 1023.43 1023.73 1024.04 1024.67
1008.20 1008.46 1008.81 1009.19 1009.57 1009.94 1010.29 1010.36 1010.62 1010.87 1011.27 1011.74 1011.76 1012.01 1012.63 1012.82 1012.99 1013.12 1013.11 1013.40 1013.52 1013.53 1013.78 1013.94 1014.34 1014.98 1015.54 1016.42 1017.10 1017.62 1017.72 1018.82 1019.67 1020.16 1020.98 1021.61 1022.14 1022.84 1023.30 1023.64 1024.02 1024.34 1024.98
1008.12 1008.31 1008.66 1009.01 1009.33 1009.74 1009.98 1010.07 1010.46 1010.71 1010.83 1011.37 1011.86 1011.93 1011.97 1012.13 1012.80 1013.33 1013.40 1013.54 1013.75 1013.91 1014.02 1014.13 1013.45 1014.78 1015.43 1016.40 1017.00 1017.51 1018.32 1019.24 1019.86 1020.48 1021.30 1022.04 1022.46 1022.90 1023.40 1023.85 1024.25 1024.67 1025.12
1008.18 1008.36 1008.60 1008.90 1009.20 1009.60 1009.80 1010.02 1010.37 1010.69 1010.86 1011.16 1011.49 1011.83 1012.10 1012.23 1012.18 1012.63 1013.43 1013.78 1013.89 1014.15 1014.25 1014.31 1014.75 1014.88 1015.57 1016.42 1016.61 1017.72 1018.85 1019.69 1020.29 1020.93 1021.73 1021.97 1022.43 1022.93 1023.46 1023.97 1024.37 1024.71 1025.03
1008.26 1008.45 1008.69 1008.94 1009.13 1009.48 1009.68 1009.99 1010.26 1010.64 1010.88 1010.94 1011.12 1011.42 1011.69 1011.96 1012.16 1012.35 1013.02 1013.79 1014.20 1014.51 1014.46 1014.77 1015.17 1015.00 1015.48 1016.38 1017.43 1018.42 1019.37 1020.12 1020.67 1021.40 1021.68 1022.15 1022.64 1023.15 1023.61 1024.03 1024.35 1024.58 1024.88
1008.43 1008.59 1008.80 1008.96 1009.12 1009.30 1009.56 1009.94 1010.30 1010.54 1010.70 1010.84 1011.06 1011.54 1011.39 1011.61 1011.78 1012.09 1012.85 1013.72 1014.23 1014.62 1014.85 1015.12 1015.27 1015.24 1015.09 1016.27 1017.70 1018.80 1019.64 1020.55 1021.06 1021.35 1021.91 1022.38 1022.87 1023.18 1023.66 1024.13 1024.34 1024.56 1024.85
1008.43 1008.58 1008.81 1008.96 1009.08 1009.19 1009.60 1010.01 1010.38 1010.67 1010.80 1011.05 1011.28 1011.32 1011.57 1011.83 1011.81 1011.95 1012.39 1013.10 1013.87 1014.98 1014.93 1015.04 1015.55 1015.77 1016.08 1017.21 1018.29 1019.12 1020.14 1020.72 1021.26 1021.68 1022.19 1022.69 1023.08 1023.47 1023.97 1024.17 1024.45 1024.72 1024.74
1008.39 1008.54 1008.79 1008.91 1009.09 1009.24 1009.71 1010.09 1010.50 1010.79 1011.03 1011.29 1011.45 1011.51 1011.74 1012.03 1012.21 1012.25 1012.58 1012.59 1013.44 1014.80 1014.86 1015.23 1015.92 1016.27 1016.85 1017.91 1018.81 1019.62 1020.38 1021.06 1021.60 1022.13 1022.51 1022.81 1023.24 1023.52 1024.01 1024.27 1024.59 1024.52 1024.69
1008.40 1008.54 1008.83 1009.01 1009.20 1009.46 1009.88 1010.25 1010.64 1010.89 1011.13 1011.43 1011.63 1011.75 1012.07 1012.40 1012.58 1012.80 1012.94 1013.34 1014.04 1014.59 1014.86 1015.54 1016.10 1016.82 1017.62 1018.13 1019.31 1020.08 1020.81 1021.37 1021.86 1022.31 1022.59 1023.01 1023.24 1023.68 1023.89 1024.10 1024.36 1024.44 1024.67
1008.49 1008.61 1008.80 1009.14 1009.53 1009.81 1010.14 1010.47 1010.74 1011.00 1011.26 1011.58 1011.93 1012.01 1012.37 1012.61 1012.99 1013.15 1013.55 1013.98 1014.24 1014.71 1015.07 1016.08 1016.49 1017.42 1018.21 1018.89 1019.81 1020.42 1020.90 1021.47 1022.07 1022.41 1022.82 1023.11 1023.48 1023.60 1023.86 1023.97 1024.13 1024.47 1024.56
1008.46 1008.59 1008.83 1009.13 1009.60 1010.00 1010.29 1010.58 1010.89 1011.19 1011.44 1011.75 1012.03 1012.29 1012.66 1012.78 1013.21 1013.52 1013.78 1014.14 1014.40 1014.67 1015.03 1015.92 1016.70 1017.66 1018.48 1019.40 1020.03 1020.64 1021.17 1021.58 1022.02 1022.43 1022.75 1023.03 1023.28 1023.61 1023.69 1023.92 1024.28 1024.37 1024.74
1008.68 1008.88 1009.04 1009.42 1009.88 1010.23 1010.55 1010.81 1011.10 1011.41 1011.70 1011.95 1012.28 1012.48 1012.88 1013.28 1013.57 1013.89 1014.19 1014.49 1014.84 1015.10 1015.60 1016.12 1017.17 1017.97 1018.88 1019.71 1020.42 1021.00 1021.45 1021.88 1022.04 1022.43 1022.71 1023.08 1023.34 1023.54 1023.80 1023.96 1024.04 1024.39 1024.25
1008.91 1009.10 1009.23 1009.59 1010.08 1010.42 1010.72 1010.93 1011.19 1011.54 1011.85 1012.19 1012.47 1012.72 1012.98 1013.44 1013.89 1014.12 1014.45 1014.83 1015.27 1015.69 1016.09 1016.78 1017.61 1018.26 1019.17 1019.93 1020.43 1021.17 1021.84 1022.09 1022.32 1022.33 1022.80 1023.26 1023.40 1023.40 1023.56 1023.84 1023.91 1024.18 1024.45
1009.18 1009.46 1009.62 1009.92 1010.31 1010.71 1011.01 1011.33 1011.61 1011.84 1012.15 1012.52 1012.79 1013.12 1013.42 1013.75 1014.07 1014.43 1014.70 1015.21 1015.60 1016.09 1016.66 1017.24 1017.66 1018.71 1019.57 1020.14 1020.66 1021.18 1021.46 1021.92 1022.51 1022.62 1023.07 1023.25 1023.20 1023.46 1024.00 1024.31 1024.39 1024.38 1024.60
1009.46 1009.57 1009.91 1010.14 1010.53 1011.07 1011.43 1011.71 1011.92 1012.22 1012.51 1012.78 1013.11 1013.52 1013.95 1014.29 1014.57 1014.90 1015.20 1015.63 1015.94 1016.36 1017.01 1017.52 1018.24 1018.87 1019.67 1020.09 1020.61 1020.81 1021.28 1022.06 1022.66 1022.89 1022.95 1023.89 1023.69 1024.68 1024.72 1025.17 1025.03 1024.65 1025.17
1009.73 1009.94 1010.06 1010.39 1010.78 1011.41 1011.76 1012.09 1012.41 1012.61 1012.90 1013.18 1013.48 1013.78 1014.21 1014.56 1014.92 1015.46 1015.90 1016.31 1016.60 1016.90 1017.16 1017.57 1018.01 1018.69 1019.32 1019.76 1020.18 1020.80 1021.22 1021.74 1022.26 1022.76 1022.86 1024.09 1024.62 1025.00 1025.44 1025.38 1025.29 1025.57 1025.70
1010.26 1010.36 1010.45 1010.67 1011.03 1011.37 1011.77 1012.22 1012.57 1012.87 1013.20 1013.51 1013.73 1014.12 1014.48 1015.10 1015.64 1015.81 1016.21 1016.61 1017.08 1017.60 1017.85 1017.74 1018.03 1018.45 1018.84 1019.36 1019.58 1020.13 1020.77 1021.70 1022.45 1022.79 1022.46 1023.79 1024.78 1025.17 1025.56 1026.01 1026.09 1025.94 1025.87
1010.63 1010.71 1010.89 1011.02 1011.41 1012.05 1012.11 1012.42 1012.61 1013.03 1013.31 1013.67 1013.96 1014.45 1014.79 1015.45 1015.80 1016.10 1016.47 1016.92 1017.43 1017.94 1018.38 1018.34 1018.51 1018.84 1019.04 1019.30 1019.51 1019.99 1020.72 1021.31 1022.44 1022.88 1023.17 1023.49 1024.61 1025.14 1025.57 1026.21 1026.24 1025.85 1025.72
1010.85 1011.05 1011.31 1011.59 1011.84 1012.27 1012.57 1012.80 1013.07 1013.27 1013.68 1014.03 1014.59 1015.04 1015.38 1015.74 1016.16 1016.52 1016.88 1017.22 1017.53 1018.03 1018.33 1018.73 1019.00 1019.25 1019.39 1019.89 1020.02 1019.87 1020.58 1021.26 1022.25 1022.96 1023.31 1023.57 1024.36 1024.66 1025.27 1025.85 1025.97 1026.10 1026.08
Wind_Speed
5 4 5 4 3 2 3 3 3 3 4 5 5 6 5 5 5 3 3 12 15 12 16 19 23 22 24 23 23 21 19 17 15 14 17 18 18 17 17 17 16 14 15
5 4 4 5 4 3 3 2 4 3 3 4 5 5 5 4 5 5 4 6 14 12 15 18 22 22 24 24 22 22 20 18 14 16 20 18 18 17 18 18 16 16 16
6 5 4 4 4 3 4 3 3 2 2 2 4 4 3 5 5 5 6 6 6 12 15 18 21 21 20 20 21 22 21 17 17 19 22 19 18 18 18 17 17 16 16
6 5 4 4 3 3 3 2 2 2 2 4 3 3 3 4 5 6 5 4 5 5 11 18 20 19 20 23 24 24 22 17 18 19 21 19 19 18 18 17 16 17 17
5 5 4 4 4 3 3 2 1 2 3 3 3 2 2 3 4 3 5 5 6 5 5 15 20 18 21 23 25 26 22 19 18 20 20 19 19 19 17 17 16 16 16
5 4 3 3 3 3 3 3 3 2 2 3 2 1 1 1 1 2 4 4 3 4 4 5 10 12 23 23 23 25 23 23 20 21 19 19 18 19 18 17 16 16 14
4 5 3 3 3 4 4 5 3 4 1 3 4 2 4 3 2 1 2 2 3 3 5 5 7 7 10 21 23 23 24 23 23 22 18 18 18 18 18 18 17 15 13
5 4 4 3 4 3 4 5 4 3 2 3 3 2 2 2 4 1 2 2 3 3 5 7 9 9 9 9 14 24 25 24 24 22 19 16 16 15 15 15 15 15 12
3 5 4 4 4 3 4 6 4 5 3 2 1 3 2 2 3 2 3 3 3 2 2 6 8 11 11 10 13 18 26 25 23 22 18 15 15 16 15 14 14 13 11
2 3 4 4 4 3 5 6 4 3 4 3 1 1 1 3 3 3 1 2 4 3 5 5 6 9 11 10 11 17 22 20 22 21 18 18 17 16 14 13 12 11 9
0 2 3 4 4 3 4 5 5 4 2 4 3 2 1 2 2 3 3 2 2 3 4 5 3 7 12 11 8 17 21 18 19 18 18 16 15 14 13 13 12 11 9
1 3 4 4 4 4 5 4 3 4 4 3 2 3 3 3 3 3 4 4 4 1 5 6 5 3 13 12 17 21 19 16 14 12 11 12 12 13 13 13 12 11 8
1 3 3 4 3 4 5 4 4 3 3 3 4 3 1 1 2 3 6 4 4 2 2 5 5 4 7 14 15 19 19 15 12 12 10 9 10 11 11 11 10 8 5
2 3 3 4 3 5 5 5 3 2 3 3 3 3 2 2 4 4 4 7 4 2 1 4 5 7 6 12 16 18 10 13 12 10 9 9 7 8 8 7 6 5 2
2 4 4 4 4 5 6 5 3 4 4 3 4 4 4 3 3 3 4 5 5 2 1 4 3 9 8 10 13 10 9 11 12 10 8 9 8 7 7 6 6 4 3
2 4 4 4 5 5 6 5 4 4 6 4 4 5 6 3 5 5 5 5 4 3 4 2 4 11 9 9 12 9 9 10 10 10 8 7 7 7 7 6 6 5 5
3 4 5 5 6 7 7 7 5 5 6 7 6 7 7 6 5 5 5 5 6 5 8 4 9 11 12 11 8 7 7 5 4 8 5 7 8 7 6 5 4 5 5
4 5 5 6 7 8 6 7 6 5 6 7 8 8 7 5 6 5 5 7 6 6 9 9 11 10 11 10 8 8 5 4 3 5 6 6 6 6 5 5 6 4 5
5 5 7 8 8 6 7 6 7 7 7 7 8 8 9 9 7 6 6 7 6 6 6 9 6 8 7 7 5 4 3 3 2 4 5 4 4 3 3 3 3 3 4
5 5 7 9 10 7 8 9 6 7 7 6 7 7 7 8 9 10 7 8 8 8 8 8 9 9 4 4 4 3 3 2 2 2 3 4 5 6 6 6 6 8 7
5 5 8 8 9 9 5 8 7 6 7 7 7 7 7 7 10 8 7 8 9 7 7 7 5 6 3 5 6 3 3 2 2 1 3 5 6 7 7 8 13 16 14
4 5 6 8 8 5 11 10 8 7 7 7 7 7 9 13 12 14 14 14 8 9 8 5 3 6 4 4 3 4 4 3 3 2 4 7 6 7 8 8 14 18 17
4 5 5 6 6 7 12 12 10 6 7 6 7 7 7 7 11 11 11 10 9 9 5 4 8 6 5 7 6 3 3 2 3 2 5 6 4 9 7 10 14 15 14
4 3 4 5 5 4 10 11 11 8 7 8 7 9 9 10 8 9 6 5 5 4 3 2 4 6 4 7 6 4 5 7 4 4 1 4 1 7 7 8 11 11 13
3 3 3 5 7 5 8 11 9 7 8 7 8 9 9 8 9 9 5 6 6 5 8 9 9 7 9 11 8 7 5 6 3 2 3 4 3 4 4 5 6 14 16
4 4 5 4 6 7 6 10 8 6 8 6 6 6 9 8 8 7 5 6 6 4 7 6 6 8 7 7 6 3 6 5 4 2 2 3 4 4 5 3 6 8 8
Wind_Direction
218 211 224 212 221 212 226 242 246 232 213 198 185 198 212 222 229 224 233 261 268 223 218 198 201 188 181 166 162 167 151 147 155 166 144 134 124 123 121 115 118 125 126
215 215 221 219 211 213 218 225 232 215 205 188 195 202 215 228 229 230 218 253 267 222 214 200 196 183 175 169 160 154 147 140 164 173 147 127 124 127 125 126 131 129 127
215 216 223 225 204 203 217 221 222 194 175 187 206 208 222 238 234 235 221 232 258 234 210 200 195 192 172 151 156 151 141 153 178 170 141 129 131 129 130 134 130 132 124
211 211 213 210 193 199 206 206 177 186 187 193 194 220 230 230 236 237 222 227 242 231 213 202 189 183 177 157 156 151 148 164 178 161 133 136 133 133 136 131 135 131 124
212 203 209 207 184 184 200 177 162 163 177 189 205 226 245 241 240 219 223 225 228 202 181 205 169 177 162 156 155 152 154 157 171 145 137 136 139 135 128 137 134 128 126
207 196 213 210 183 173 177 166 161 177 175 175 165 92 6 346 229 208 220 218 187 183 170 185 171 163 163 165 162 155 154 155 162 144 141 140 136 129 141 136 138 130 129
209 197 198 192 183 186 176 168 144 158 122 144 123 96 63 40 151 174 190 133 135 162 115 133 143 148 168 168 159 156 151 160 159 142 142 134 133 143 140 150 138 133 136
217 197 187 194 185 156 159 167 158 139 104 160 130 107 86 45 70 122 124 108 126 125 135 144 139 140 142 142 157 155 163 160 147 144 129 128 132 133 152 147 139 137 141
241 203 187 178 181 160 171 176 161 143 135 157 117 128 127 146 135 17 83 118 104 113 119 134 130 144 141 145 159 170 153 145 138 127 128 129 147 162 156 145 142 141 152
262 186 182 181 173 157 176 178 156 145 126 143 135 124 108 139 148 140 86 85 137 112 155 109 150 139 138 152 172 159 132 140 131 131 144 165 163 159 149 146 149 150 158
56 159 166 160 157 168 159 155 164 153 148 151 152 141 97 69 93 134 122 138 75 122 121 117 130 149 144 143 119 130 136 140 136 145 168 163 159 152 151 157 158 164 174
99 124 140 151 151 163 157 170 162 171 190 165 152 121 169 154 171 132 119 98 91 51 137 122 117 141 152 146 136 141 141 136 142 156 154 152 153 154 159 166 171 172 179
120 142 131 151 153 159 160 148 154 175 188 170 140 159 109 128 135 102 118 111 99 51 216 115 111 96 96 127 137 144 134 142 150 139 133 130 147 151 163 173 176 174 181
140 149 135 138 134 132 131 137 139 134 135 127 139 102 140 135 137 147 130 146 90 78 89 123 118 121 90 131 139 128 135 137 127 117 127 133 145 148 170 167 167 170 168
154 152 152 123 113 113 123 130 123 123 119 121 118 121 105 95 91 76 73 96 109 142 92 96 112 115 105 131 126 122 124 121 128 136 139 146 153 158 172 173 186 194 219
151 153 142 116 108 109 119 114 115 121 115 114 113 114 106 98 93 96 96 87 117 129 108 59 105 124 113 106 114 111 120 124 132 149 154 183 166 178 178 190 207 230 251
136 147 137 121 110 112 122 124 128 128 113 115 114 121 106 119 116 111 104 112 132 124 120 109 121 126 123 119 110 107 119 124 141 144 167 168 179 186 202 216 236 250 256
124 129 127 119 123 122 124 133 124 132 130 126 115 114 115 113 107 105 100 102 110 123 126 126 129 133 127 120 116 120 124 122 139 184 188 182 189 205 221 243 259 311 327
104 105 109 117 113 111 115 124 124 120 115 119 126 138 139 131 126 123 108 105 109 108 113 123 119 128 118 122 113 92 99 107 149 164 177 199 222 248 323 330 346 314 339
107 112 116 117 122 121 125 132 111 105 99 101 107 116 122 125 142 138 121 116 113 116 115 110 120 119 116 100 101 119 122 128 132 93 75 59 61 67 44 30 38 41 37
105 108 117 114 118 124 119 123 113 104 105 99 97 105 106 110 99 104 116 123 118 115 120 124 101 113 108 142 156 155 113 118 80 99 97 46 68 68 57 65 75 69 66
96 110 115 123 119 114 122 115 117 114 109 109 104 101 111 103 93 93 87 82 88 111 112 117 112 135 133 135 128 151 127 122 134 53 100 71 75 79 73 73 79 74 73
110 105 113 112 121 122 128 125 118 117 118 118 120 120 104 104 107 105 87 84 87 91 102 119 143 145 141 169 153 128 127 128 117 129 124 93 82 88 81 66 75 80 77
101 114 113 115 111 125 134 135 124 120 120 120 126 124 124 123 121 118 109 94 82 108 106 112 149 152 157 155 144 147 139 111 104 90 74 104 120 103 94 78 60 83 78
95 102 107 118 109 107 131 131 118 118 110 105 98 118 127 129 131 120 107 98 102 81 54 69 90 105 128 139 140 126 125 125 93 64 32 110 151 130 110 86 70 59 61
102 110 98 88 112 123 134 127 121 124 119 114 102 100 108 132 139 125 116 140 121 132 124 98 77 61 69 79 69 68 148 135 133 129 85 112 144 173 151 116 52 41 50